Wind_Speed
9 10 11 10 10 9 9 9 10 11 11 10 9 8 8 8 9 9 9 10 10 10 11 11 11 11 12 12 13 13 14 14 14 14 14 14 15 16 16 16 17 18 19
9 10 10 10 9 9 10 10 11 11 11 10 9 8 9 9 10 10 10 10 11 11 11 11 11 11 11 12 13 14 15 15 15 15 15 16 16 17 17 18 19 19 20
9 10 10 9 9 10 10 10 11 11 10 10 10 10 10 11 11 11 11 10 11 11 11 11 11 12 13 13 14 15 15 16 16 16 16 17 17 18 19 20 20 21 22
10 9 10 10 9 10 10 10 11 11 11 11 12 12 12 12 12 12 11 11 12 12 12 12 13 13 13 14 14 15 16 16 16 17 17 17 18 19 20 20 21 22 23
10 10 9 9 10 10 10 11 11 12 12 12 13 13 13 12 12 13 12 13 13 13 13 13 13 13 13 14 14 15 16 17 17 17 18 18 19 21 22 23 23 23 24
11 11 12 11 11 10 11 11 12 11 12 12 12 13 13 13 13 13 13 14 14 14 15 15 15 15 15 16 16 17 17 18 18 19 20 20 21 22 23 24 24 24 25
12 12 11 11 12 12 12 12 12 12 12 13 13 14 13 14 14 14 14 15 15 14 15 16 16 16 17 18 18 19 19 19 20 22 23 23 24 24 25 26 26 27 27
12 12 12 12 13 13 13 12 13 13 13 13 14 14 13 14 15 15 15 16 16 16 16 16 17 18 19 19 20 21 21 21 22 23 23 24 24 25 25 25 27 27 29
14 14 13 14 14 14 14 14 14 14 14 15 14 15 14 15 15 16 16 17 17 17 17 18 19 20 20 20 20 21 22 22 24 25 23 24 25 27 27 28 28 30 30
14 14 14 15 15 15 15 14 15 16 16 16 16 16 15 16 17 17 17 17 17 18 19 19 20 21 21 21 21 22 22 23 24 25 25 25 26 28 28 29 30 31 32
16 16 15 15 16 16 16 16 16 17 17 16 16 16 17 17 18 18 18 18 18 19 20 20 21 22 22 22 22 23 23 23 24 25 25 26 27 28 29 30 31 32 32
17 17 17 17 17 17 18 18 17 17 17 17 17 17 17 18 19 19 18 18 19 20 20 21 21 22 23 24 24 24 25 26 26 26 26 27 29 30 31 31 32 33 33
18 17 17 18 18 18 18 18 18 18 18 18 18 18 19 19 19 19 19 19 20 20 21 21 22 23 24 25 25 26 26 27 27 28 28 29 30 31 32 32 33 33 33
19 18 18 19 19 18 19 19 19 18 18 19 19 20 20 20 20 19 19 20 20 20 21 22 23 24 25 26 26 27 27 28 29 30 30 31 31 31 32 32 33 34 34
19 19 19 19 19 19 20 20 20 20 20 20 20 21 21 21 20 20 19 20 21 21 22 23 24 25 25 26 27 27 27 28 29 30 31 31 32 32 33 34 35 35 35
21 20 20 20 20 20 20 20 19 20 20 20 20 20 20 21 21 21 21 21 21 22 23 24 24 25 26 27 28 28 29 30 30 30 31 32 32 33 34 35 34 34 34
22 21 21 21 21 20 20 20 19 19 20 19 18 19 20 20 20 21 21 22 23 24 24 24 24 25 26 27 29 30 30 30 31 31 32 33 34 34 35 35 35 36 36
22 22 21 21 21 21 21 21 20 20 19 19 19 20 20 20 21 21 21 22 23 24 24 25 25 26 27 28 29 30 31 32 32 33 34 35 35 36 36 36 37 37 38
22 21 21 21 21 21 22 21 21 20 20 20 20 20 21 21 21 21 21 22 23 24 25 25 26 27 28 29 31 31 32 33 34 35 36 36 37 37 37 37 38 39 40
22 22 21 21 20 20 21 21 21 20 20 21 21 21 21 22 22 23 23 24 24 25 26 27 27 28 29 30 31 32 33 34 34 36 36 37 37 37 37 38 39 40 40
22 22 22 21 21 20 20 20 20 21 22 22 22 22 22 23 24 24 24 25 26 27 28 28 29 30 31 31 32 33 34 35 36 36 36 36 37 37 38 39 40 40 40
22 22 22 22 21 20 20 21 21 22 22 22 22 23 24 25 25 25 26 27 27 28 29 29 30 31 31 32 33 34 35 36 36 35 36 36 37 38 39 39 39 39 39
22 22 22 22 22 22 21 22 22 22 23 24 24 24 24 25 26 27 27 28 28 29 30 30 31 31 32 33 34 34 35 35 35 36 36 37 37 38 38 38 39 39 39
21 21 21 21 21 22 22 22 22 23 23 23 24 24 25 26 26 27 28 29 29 30 30 31 32 33 33 34 35 35 35 35 36 36 36 37 37 37 37 38 38 38 38
21 21 20 21 21 22 22 22 22 23 24 24 25 26 26 27 27 28 28 29 30 31 32 32 32 32 33 33 34 34 34 35 35 35 35 36 36 36 37 38 37 37 37
20 20 20 20 21 21 22 23 22 22 23 23 24 25 26 27 28 28 29 30 31 32 31 31 32 32 33 33 33 34 34 34 34 34 34 35 35 36 36 36 35 35 36
Wind_Direction
287 290 289 285 283 287 293 295 296 296 291 286 286 284 288 290 290 288 283 283 285 287 285 283 282 280 276 272 270 269 271 272 272 276 280 279 280 281 278 278 278 278 276
283 290 294 289 281 283 288 292 297 296 290 284 281 281 285 285 286 288 289 285 284 284 283 280 281 280 281 277 274 275 274 274 275 276 279 281 282 284 284 283 281 278 279
283 288 290 290 284 284 290 293 294 297 291 283 283 280 279 281 283 284 284 285 284 284 285 283 283 283 281 281 281 280 277 277 277 278 281 283 283 282 284 285 282 281 280
283 284 287 290 291 290 288 292 290 290 285 282 282 280 279 278 278 281 283 283 284 286 285 284 284 284 283 284 285 285 283 283 283 284 284 284 286 285 286 287 284 283 282
285 288 287 292 293 294 294 294 294 290 284 280 280 278 278 279 279 281 282 283 282 285 286 288 288 286 285 286 288 288 288 285 284 284 286 285 285 285 284 284 282 282 281
283 286 288 289 292 295 297 300 300 298 286 278 282 283 282 282 284 284 284 287 286 283 285 286 288 286 286 286 286 287 287 287 288 287 285 285 285 286 285 284 284 284 283
287 289 287 287 290 292 294 297 302 303 298 293 290 286 283 283 286 284 282 283 285 287 286 286 287 287 287 287 286 286 287 287 288 288 283 283 284 284 284 285 285 285 284
285 288 288 289 292 292 292 293 299 302 302 302 296 289 287 286 286 283 282 283 284 286 287 286 286 287 289 288 286 286 286 288 289 289 286 285 286 287 286 285 285 287 286
281 286 287 289 291 290 290 291 295 300 301 302 300 294 289 288 288 286 285 286 285 286 287 289 289 289 288 288 288 288 287 288 289 288 288 289 288 288 287 287 287 287 287
278 283 287 289 291 291 291 291 293 294 293 294 296 294 292 291 289 288 290 289 287 287 288 290 291 291 289 289 289 290 290 290 291 290 289 291 291 291 290 289 288 288 288
276 281 286 288 288 290 291 291 292 293 291 291 293 292 292 293 293 292 290 290 291 290 289 290 291 292 290 290 290 292 293 295 295 293 292 293 295 294 292 292 292 291 289
275 282 284 285 287 292 291 290 290 291 290 290 292 292 292 294 295 293 292 292 292 292 291 291 292 292 291 291 291 292 295 297 298 298 297 296 296 295 293 292 292 292 290
276 281 285 288 291 293 294 292 291 290 289 289 290 291 292 292 293 294 294 292 292 292 293 294 294 294 293 294 294 294 295 297 299 298 298 298 297 295 294 294 293 292 291
276 279 284 287 292 295 297 293 290 289 289 289 290 291 292 292 290 291 292 292 292 293 295 295 296 296 294 294 295 295 295 296 297 297 297 297 297 297 296 296 295 293 293
273 276 281 286 290 293 295 293 290 289 288 288 290 292 293 293 292 292 291 292 294 294 296 296 296 296 295 295 295 295 296 296 297 297 298 298 299 298 298 298 297 297 295
272 276 281 284 287 290 293 293 292 292 290 288 289 292 293 292 291 292 292 292 293 294 295 296 296 296 296 296 296 296 297 297 297 298 299 300 300 299 300 300 301 300 299
272 275 279 281 286 288 291 293 294 294 293 289 289 291 292 292 293 294 294 293 293 294 295 296 297 297 297 297 297 298 299 299 299 299 300 300 301 301 302 302 301 301 300
271 275 279 281 282 284 286 289 291 293 294 290 291 291 291 291 294 296 295 294 294 295 296 297 297 298 299 299 300 301 301 302 301 301 302 302 301 301 301 301 301 301 301
270 274 278 279 280 282 285 287 288 291 291 291 292 290 290 291 293 296 297 296 297 297 298 299 300 301 302 302 302 302 302 302 302 302 302 302 301 300 300 300 301 302 301
270 273 276 278 280 282 284 285 287 288 288 288 290 290 290 291 294 296 297 298 299 300 300 301 300 301 301 301 301 302 303 304 304 305 305 304 303 301 301 301 302 302 302
272 274 275 276 279 281 282 284 285 286 286 286 288 289 291 292 293 295 296 297 299 299 300 300 300 301 302 302 303 304 305 304 305 306 306 305 304 303 303 302 303 303 303
273 275 276 276 278 280 281 282 284 286 286 287 289 291 292 292 292 294 296 297 297 298 299 300 301 301 302 303 303 304 305 305 306 307 306 305 305 304 304 304 305 305 305
272 274 275 276 277 278 281 281 281 283 285 287 289 289 291 292 293 294 295 297 298 298 299 300 301 302 303 303 303 304 305 306 307 306 306 306 306 307 307 307 307 308 307
272 274 274 275 276 278 281 283 283 285 285 286 289 290 290 291 294 295 297 298 299 300 302 302 302 303 303 303 303 304 306 306 306 306 307 308 308 308 309 309 310 310 310
271 272 273 275 277 278 280 282 283 285 287 288 289 290 290 293 296 298 298 299 300 301 302 303 303 304 304 304 305 306 307 307 307 308 309 310 310 310 310 310 310 311 311
269 269 272 276 280 283 283 285 286 287 288 290 292 294 296 298 299 299 299 300 301 302 302 302 304 304 304 305 306 307 308 308 308 309 310 310 310 310 310 311 311 312 313
Height
5893 5892 5890 5889 5889 5888 5888 5887 5886 5885 5884 5884 5883 5882 5881 5880 5879 5878 5877 5876 5875 5875 5874 5873 5871 5871 5870 5869 5869 5869 5868 5868 5867 5866 5865 5864 5863 5862 5861 5860 5859 5858 5856
5889 5889 5888 5886 5886 5885 5885 5884 5883 5882 5881 5881 5880 5879 5878 5878 5877 5876 5875 5874 5873 5872 5870 5869 5868 5867 5866 5866 5865 5864 5864 5863 5863 5862 5861 5860 5859 5857 5856 5855 5854 5852 5851
5886 5886 5885 5884 5883 5883 5882 5881 5880 5879 5878 5877 5877 5876 5875 5875 5874 5872 5871 5870 5869 5868 5867 5865 5865 5864 5863 5862 5861 5860 5859 5859 5858 5857 5856 5855 5853 5852 5851 5849 5848 5847 5845
5884 5883 5882 5881 5881 5880 5879 5878 5877 5876 5875 5874 5873 5872 5872 5871 5870 5869 5868 5867 5866 5864 5863 5862 5861 5860 5859 5858 5857 5856 5855 5854 5853 5852 5851 5850 5848 5846 5845 5844 5842 5840 5839
5881 5880 5879 5879 5878 5877 5876 5875 5873 5872 5871 5870 5869 5868 5868 5867 5866 5865 5864 5863 5862 5860 5859 5858 5857 5856 5855 5854 5853 5851 5850 5849 5848 5847 5845 5844 5842 5841 5839 5837 5836 5834 5832
5878 5877 5876 5876 5874 5873 5872 5871 5870 5869 5867 5866 5865 5865 5864 5863 5862 5861 5860 5859 5858 5856 5855 5854 5853 5852 5850 5849 5848 5846 5845 5844 5842 5841 5840 5838 5836 5834 5833 5831 5829 5827 5825
5874 5872 5872 5872 5871 5870 5869 5868 5867 5866 5864 5863 5862 5861 5860 5859 5858 5857 5856 5855 5854 5853 5851 5850 5848 5847 5845 5844 5842 5841 5839 5837 5836 5835 5833 5831 5829 5827 5825 5823 5821 5819 5817
5871 5870 5869 5869 5868 5867 5866 5865 5864 5862 5860 5859 5857 5856 5856 5855 5854 5853 5851 5850 5849 5848 5847 5845 5844 5842 5840 5838 5836 5835 5833 5831 5829 5827 5826 5824 5822 5820 5817 5815 5813 5811 5808
5867 5866 5866 5865 5864 5863 5862 5861 5860 5858 5857 5855 5854 5853 5852 5851 5849 5848 5847 5845 5844 5843 5842 5840 5838 5837 5835 5832 5830 5828 5827 5824 5822 5819 5818 5816 5814 5812 5809 5807 5805 5802 5799
5862 5862 5861 5861 5860 5859 5858 5857 5856 5854 5853 5851 5850 5849 5847 5846 5845 5843 5842 5840 5839 5837 5836 5834 5833 5831 5828 5826 5824 5822 5820 5818 5815 5813 5810 5808 5806 5804 5801 5798 5796 5793 5790
5857 5857 5857 5856 5855 5854 5853 5852 5851 5850 5848 5847 5845 5844 5843 5841 5840 5838 5837 5835 5834 5832 5830 5829 5827 5824 5822 5820 5818 5816 5813 5811 5808 5806 5803 5801 5798 5795 5792 5789 5786 5783 5780
5852 5853 5852 5851 5851 5849 5848 5847 5846 5845 5843 5842 5840 5839 5838 5836 5835 5833 5831 5830 5828 5826 5825 5823 5821 5819 5816 5814 5811 5809 5807 5804 5801 5798 5795 5793 5790 5787 5783 5780 5777 5773 5770
5847 5847 5847 5846 5845 5844 5843 5842 5840 5839 5838 5836 5835 5834 5832 5831 5829 5828 5826 5824 5822 5820 5818 5816 5814 5812 5810 5807 5805 5802 5800 5797 5794 5790 5787 5784 5781 5778 5774 5771 5767 5763 5760
5842 5842 5841 5840 5839 5838 5837 5836 5834 5833 5832 5831 5829 5828 5826 5825 5823 5822 5820 5818 5816 5814 5812 5810 5808 5805 5803 5800 5797 5795 5792 5789 5786 5782 5779 5776 5773 5769 5765 5762 5758 5754 5751
5836 5836 5836 5835 5834 5833 5832 5830 5829 5828 5827 5826 5824 5822 5820 5819 5817 5816 5814 5812 5810 5808 5806 5804 5801 5798 5796 5793 5790 5787 5784 5781 5778 5774 5771 5767 5764 5760 5756 5753 5749 5745 5742
5831 5830 5830 5829 5829 5827 5825 5824 5823 5822 5821 5819 5818 5816 5814 5813 5811 5809 5808 5806 5804 5802 5799 5797 5794 5791 5788 5785 5782 5779 5776 5773 5769 5766 5763 5759 5755 5751 5748 5744 5740 5736 5732
5824 5824 5823 5823 5822 5821 5820 5818 5817 5816 5814 5813 5811 5810 5808 5807 5805 5803 5801 5799 5797 5795 5793 5790 5787 5784 5781 5778 5775 5771 5768 5765 5761 5757 5754 5750 5746 5742 5738 5734 5730 5726 5721
5817 5817 5817 5816 5816 5815 5814 5812 5811 5810 5809 5807 5805 5804 5802 5801 5799 5797 5795 5793 5790 5788 5786 5783 5780 5777 5774 5770 5767 5763 5760 5756 5753 5749 5745 5741 5737 5733 5729 5725 5720 5716 5711
5811 5811 5811 5810 5809 5809 5807 5806 5805 5804 5803 5801 5799 5798 5796 5795 5793 5791 5789 5786 5784 5781 5778 5775 5773 5769 5766 5763 5759 5755 5752 5748 5744 5740 5736 5731 5727 5723 5718 5714 5710 5705 5700
5804 5804 5804 5803 5803 5802 5801 5800 5799 5798 5796 5795 5793 5792 5790 5788 5786 5784 5782 5780 5777 5774 5771 5768 5765 5762 5758 5755 5751 5747 5743 5739 5735 5730 5726 5721 5716 5712 5708 5703 5699 5694 5689
5798 5798 5798 5797 5796 5796 5795 5794 5793 5792 5790 5789 5787 5785 5784 5782 5780 5778 5775 5773 5770 5767 5764 5760 5757 5753 5750 5746 5742 5738 5734 5730 5725 5720 5716 5711 5706 5702 5697 5693 5688 5683 5678
5791 5791 5791 5791 5790 5789 5789 5788 5787 5785 5784 5782 5780 5779 5777 5775 5773 5770 5768 5765 5762 5759 5756 5752 5749 5745 5741 5737 5734 5729 5725 5721 5716 5711 5706 5701 5697 5692 5687 5682 5677 5672 5667
5785 5784 5784 5784 5783 5782 5781 5781 5780 5779 5777 5775 5773 5771 5769 5767 5765 5763 5760 5757 5754 5751 5747 5744 5740 5736 5732 5728 5724 5720 5716 5711 5706 5701 5697 5692 5687 5682 5677 5672 5667 5661 5656
5778 5778 5777 5777 5777 5776 5775 5773 5772 5771 5770 5768 5766 5764 5762 5760 5757 5755 5752 5749 5745 5742 5738 5735 5731 5727 5723 5719 5715 5710 5705 5701 5696 5692 5687 5682 5677 5672 5667 5662 5657 5651 5646
5771 5771 5771 5771 5770 5769 5768 5767 5766 5764 5763 5761 5759 5757 5755 5752 5750 5747 5743 5740 5737 5733 5729 5725 5721 5718 5713 5709 5705 5700 5696 5691 5687 5682 5677 5672 5667 5662 5657 5652 5647 5642 5636
5764 5764 5764 5764 5763 5762 5761 5760 5759 5757 5755 5754 5752 5749 5747 5744 5742 5738 5735 5732 5728 5724 5720 5716 5712 5708 5704 5700 5696 5691 5687 5682 5677 5672 5668 5663 5658 5653 5648 5643 5637 5632 5627